Location: Winthrop
(48.4780°N, 120.1850°W)
Time: 16:24:22
(UTC-07:00)

Vanguard 3 - Pass Details

Date: 06 February 2023
Orbit: 508 x 3249 km, 33.3° (Epoch: 22 March)

Event Time Altitude Azimuth Distance (km) Brightness Sun altitude
Rises 17:59:46 0° 223° (SW) 3,764 11.6 -9.0°
Reaches altitude 10° 18:02:24 10° 211° (SSW) 3,119 10.8 -9.5°
Maximum altitude 18:09:03 28° 155° (SSE) 2,714 9.7 -10.5°
Drops below altitude 10° 18:19:17 10° 104° (ESE) 4,938 10.6 -12.2°
Enters shadow 18:19:29 10° 103° (ESE) 4,991 10.6 -12.2°
